Find Starlink 38157

NORAD ID: 100263 Int'l Des: 2026-181 Owner: SPXS Country: US Constellation: starlink operational

現在のビュー

3D地球を読み込み中...

About Starlink 38157

Starlink 38157 (NORAD 100263) is a starlink constellation satellite launched Aug 8, 2026 by SPXS of US. with a mass of 575.00 kg.

次回通過

Passes for default location (London). Set your location on the main map for personalized predictions.

高度履歴

Loading altitude history...

軌道要素

1 A0263U 26181T 26262.66613061 .00225357 00000-0 14685-2 0 9996
2 A0263 97.2833 306.2907 0001013 87.3980 272.7401 15.75248496 7834
Epoch: Sep 19, 2026 • Age: 23 hours

現在のステータス

高度 366.9 km
遠地点 / 近地点 N/A
速度 7.69 km/s
衛星直下点 -60.91°S, 102.1°E
打ち上げ日 Aug 8, 2026
運用期間 0.1 years
タイプ internet

技術仕様

分類 Payload
質量 575.00 kg
乾燥質量 530.00 kg
長さ 0.30 m
スパン 29.00 m
形状 ? Box + pan
製造者 SPXS
バスタイプ Starlink V2MO
フェーズステータス In Orbit
所有者/国 SPXS/US

Most Searched